星链-11162 [DTC] (STARLINK-11162 [DTC] )

导读 | 豆包AI

STARLINK-11162是美国太空探索技术公司星链(Starlink)星座的卫星,于北京时间2024年6月24日发射入轨,星链项目旨在为全球提供高速低延迟互联网卫星服务。该卫星延续星链设计,依托近地轨道部署,进一步扩充星座组网规模,增强全球网络覆盖能力,推动卫星互联网的全球化普及进程。

Basic Information
目录编号:
60123
目录名称:
STARLINK-11162
国际标识:
2024-118L
轨道中心:
EARTH
卫星名称:
星链-11162 [DTC]
卫星全名:
星链-11162 [DTC] (STARLINK-11162 [DTC] )
卫星状态:
在轨 (已飞行700 天)
发射日期:
2024-06-24 UTC
国别 :
美国 (US)
星等 :
--
Orbit Information
数据来源 国际轨道数据 AOE轨道数据
星历时间 2026-05-25T11:10:02+0800
7小时前
查看轨道信息
2026-05-19T04:00:00+0800
6天前
查看轨道信息
半长轴 6737.867km 6737.743km
偏心率 0.0001219 0.0000965
轨道倾角 53.158° 53.158°
近地点辐角 78.286° 61.873°
升交点赤经 204.117° 235.165°
平近点角 281.829° 324.433°
近地点 358.908km 358.955km
远地点 360.552km 360.257km
周期 91.737分钟 91.734分钟
每日圈数 15.697091 15.697524
Detailed Information
固有亮度:
5
最大亮度:
0.3
卫星平台:
Starlink v2.0 mini
覆盖范围:
全球
运营商:
太空探索技术公司
运营商所在国:
美国
制造商(研发单位):
太空探索技术公司
制造商所在国:
美国
使用方式:
暂无
Satellite Introduction
星链(Starlink)计划是由太空探索技术公司(SpaceX)提出的一个巨型低轨卫星互联网星座项目,计划在2019年至2024年间在太空搭建由约1.2万颗卫星组成的“星链”网络,其中1584颗将部署在地球上空550千米处的近地轨道,并从2020年开始工作。该卫星仍在工作。
2D Orbit Map
3D Orbit Map
Orbit Altitude Analysis Chart
Orbit Inclination Analysis Chart
Orbit Comprehensive Analysis Chart
View Comprehensive Chart